User: anonymous   Login
Location: Iola
(37.9240°N, 95.4000°W)
Time: 15:20:32
(UTC-05:00)
Language:

Meteor 2-10 Rocket - Orbit

View from above orbital plane
View from above orbital plane
View from above satellite
View from above satellite

Ground track
Ground track

The orbit data is extracted from the following two-line orbital elements,

1 14453U 83109B   16146.91944569 +.00000030 +00000-0 +62516-5 0  9991
2 14453 081.1647 135.8868 0106177 103.8649 257.4369 14.24646957692313
Epoch (UTC): 25 May 2016 22:04:00
Eccentricity: 0.0106177
inclination: 81.1647°
perigee height: 733 km
apogee height: 886 km
right ascension of ascending node: 135.8868°
argument of perigee: 103.8649°
revolutions per day: 14.24646957
mean anomaly at epoch: 257.4369°
orbit number at epoch: 69231

The dashed part of the orbit path shows where the satellite is in the earth's shadow,  

DLR